TimeEST,TemperatureF,Dew PointF,Humidity,Sea Level PressureIn,VisibilityMPH,Wind Direction,Wind SpeedMPH,Gust SpeedMPH,PrecipitationIn,Events,Conditions,WindDirDegrees,DateUTC
12:38 AM,33.8,32.0,93,29.91,1.8,Calm,Calm,-,N/A,,Overcast,0,2013-12-03 05:38:00
12:52 AM,33.8,32.0,93,29.91,3.0,Calm,Calm,-,N/A,,Overcast,0,2013-12-03 05:52:00
12:54 AM,33.1,32.0,96,29.92,3.0,Calm,Calm,-,N/A,,Overcast,0,2013-12-03 05:54:00
1:54 AM,32.0,30.0,92,29.93,3.0,Calm,Calm,-,N/A,,Mostly Cloudy,0,2013-12-03 06:54:00
2:17 AM,32.0,30.2,93,29.91,1.5,Calm,Calm,-,N/A,,Partly Cloudy,0,2013-12-03 07:17:00
2:24 AM,30.2,28.4,93,29.92,1.0,Calm,Calm,-,N/A,,Partly Cloudy,0,2013-12-03 07:24:00
2:29 AM,30.2,28.4,93,29.92,2.0,Calm,Calm,-,N/A,,Scattered Clouds,0,2013-12-03 07:29:00
2:39 AM,30.2,28.4,93,29.91,3.0,ESE,4.6,-,N/A,,Mostly Cloudy,120,2013-12-03 07:39:00
2:54 AM,32.0,30.0,92,29.93,4.0,Calm,Calm,-,N/A,,Overcast,0,2013-12-03 07:54:00
3:50 AM,30.2,28.4,93,29.91,2.5,ESE,4.6,-,N/A,,Overcast,120,2013-12-03 08:50:00
3:54 AM,30.9,30.0,96,29.93,3.0,Calm,Calm,-,N/A,,Overcast,0,2013-12-03 08:54:00
4:54 AM,30.9,30.0,96,29.93,3.0,Calm,Calm,-,N/A,,Overcast,0,2013-12-03 09:54:00
5:54 AM,30.9,30.0,96,29.94,4.0,Calm,Calm,-,N/A,,Overcast,0,2013-12-03 10:54:00
6:54 AM,32.0,30.0,92,29.95,5.0,East,3.5,-,N/A,,Mostly Cloudy,80,2013-12-03 11:54:00
7:54 AM,30.9,28.9,92,29.95,5.0,Calm,Calm,-,N/A,,Scattered Clouds,0,2013-12-03 12:54:00
8:54 AM,33.1,32.0,96,29.95,5.0,Calm,Calm,-,N/A,,Partly Cloudy,0,2013-12-03 13:54:00
9:54 AM,36.0,32.0,86,29.95,8.0,Calm,Calm,-,N/A,,Clear,0,2013-12-03 14:54:00
10:54 AM,39.0,33.1,79,29.95,8.0,Calm,Calm,-,N/A,,Clear,0,2013-12-03 15:54:00
11:54 AM,41.0,33.1,73,29.94,8.0,Calm,Calm,-,N/A,,Partly Cloudy,0,2013-12-03 16:54:00
12:54 PM,42.1,34.0,73,29.93,9.0,NW,8.1,-,N/A,,Partly Cloudy,320,2013-12-03 17:54:00
1:54 PM,39.9,33.1,77,29.94,7.0,North,9.2,-,N/A,,Clear,10,2013-12-03 18:54:00
2:54 PM,37.9,30.9,76,29.94,6.0,North,6.9,-,N/A,,Haze,360,2013-12-03 19:54:00
3:52 PM,35.6,30.2,81,29.95,6.0,North,8.1,-,N/A,,Haze,10,2013-12-03 20:52:00
3:54 PM,36.0,30.0,79,29.97,6.0,NNE,8.1,-,N/A,,Haze,20,2013-12-03 20:54:00
4:54 PM,35.1,28.0,76,29.99,10.0,NNE,8.1,-,N/A,,Overcast,20,2013-12-03 21:54:00
5:14 PM,35.6,28.4,75,29.98,10.0,North,5.8,-,N/A,,Overcast,360,2013-12-03 22:14:00
5:41 PM,33.8,28.4,81,29.98,9.0,North,4.6,-,N/A,,Overcast,360,2013-12-03 22:41:00
5:54 PM,34.0,28.9,82,29.99,9.0,North,3.5,-,N/A,,Overcast,360,2013-12-03 22:54:00
6:11 PM,33.8,28.4,81,29.98,9.0,Calm,Calm,-,N/A,,Overcast,0,2013-12-03 23:11:00
6:54 PM,34.0,30.0,85,30.01,8.0,NNW,6.9,-,N/A,,Overcast,340,2013-12-03 23:54:00
7:54 PM,33.1,30.0,89,30.01,6.0,NNE,4.6,-,N/A,,Overcast,30,2013-12-04 00:54:00
8:54 PM,33.1,30.0,89,30.01,7.0,Calm,Calm,-,N/A,,Overcast,0,2013-12-04 01:54:00
9:54 PM,33.1,28.9,85,30.01,7.0,NNE,3.5,-,N/A,,Overcast,20,2013-12-04 02:54:00
10:54 PM,32.0,28.0,85,30.03,6.0,Calm,Calm,-,N/A,,Clear,0,2013-12-04 03:54:00
11:54 PM,30.0,26.1,85,30.02,9.0,North,3.5,-,N/A,,Clear,10,2013-12-04 04:54:00